| time (UTC) | temp F | wind direction | speed MPH | gust MPH | rain 1hr in | rain 24hr in | rain mn in | humidity % | barometer mb |
| 20260502180104 | 69 | 32 | 3.0 | 11.0 | 0.00 | 0.01 | 0.00 | 42 | 1026.5 |
| 20260502163037 | 61 | 351 | 10.0 | 19.0 | 0.00 | 0.01 | 0.00 | 47 | 1027.2 |
| 20260502161532 | 60 | 14 | 11.0 | 17.0 | 0.00 | 0.01 | 0.00 | 48 | 1027.0 |
| 20260502151524 | 58 | 28 | 8.0 | 18.0 | 0.00 | 0.05 | 0.00 | 51 | 1027.0 |
| 20260502123056 | 52 | 11 | 11.0 | 14.0 | 0.00 | 0.17 | 0.00 | 73 | 1025.1 |
| 20260502121555 | 53 | 16 | 9.0 | 14.0 | 0.00 | 0.17 | 0.00 | 73 | 1025.2 |
| 20260502114550 | 53 | 36 | 8.0 | 16.0 | 0.00 | 0.21 | 0.00 | 73 | 1025.0 |
| 20260502113048 | 53 | 24 | 11.0 | 17.0 | 0.00 | 0.21 | 0.00 | 73 | 1024.8 |
| 20260502111558 | 53 | 28 | 14.0 | 20.0 | 0.00 | 0.21 | 0.00 | 73 | 1024.5 |
| 20260502110044 | 54 | 29 | 13.0 | 19.0 | 0.00 | 0.21 | 0.00 | 74 | 1024.4 |
| 20260502104543 | 54 | 5 | 7.0 | 17.0 | 0.00 | 0.21 | 0.00 | 74 | 1024.6 |
| 20260502103059 | 54 | 16 | 12.0 | 16.0 | 0.00 | 0.21 | 0.00 | 75 | 1024.5 |
| 20260502101540 | 54 | 5 | 12.0 | 19.0 | 0.00 | 0.21 | 0.00 | 74 | 1024.3 |
| 20260502071516 | 55 | 9 | 13.0 | 20.0 | 0.00 | 0.21 | 0.00 | 76 | 1023.3 |
| 20260502070020 | 55 | 11 | 14.0 | 26.0 | 0.00 | 0.21 | 0.00 | 76 | 1023.0 |
| 20260502064513 | 55 | 19 | 16.0 | 24.0 | 0.00 | 0.21 | 0.00 | 76 | 1022.8 |
| 20260502063012 | 56 | 23 | 17.0 | 27.0 | 0.00 | 0.21 | 0.00 | 75 | 1022.6 |
| 20260502061505 | 56 | 35 | 16.0 | 25.0 | 0.00 | 0.21 | 0.00 | 75 | 1022.4 |
| 20260502060002 | 57 | 350 | 16.0 | 24.0 | 0.00 | 0.21 | 0.00 | 75 | 1022.3 |
| 20260502054604 | 57 | 28 | 18.0 | 29.0 | 0.00 | 0.21 | 0.00 | 73 | 1022.1 |
| 20260502053058 | 58 | 32 | 22.0 | 30.0 | 0.00 | 0.21 | 0.00 | 74 | 1021.7 |
| 20260502051554 | 58 | 24 | 20.0 | 30.0 | 0.00 | 0.21 | 0.00 | 74 | 1021.6 |
| 20260502050049 | 59 | 331 | 14.0 | 21.0 | 0.00 | 0.21 | 0.21 | 75 | 1021.2 |
| 20260502044548 | 59 | 360 | 11.0 | 24.0 | 0.00 | 0.21 | 0.21 | 74 | 1020.9 |
| 20260502043044 | 59 | 360 | 13.0 | 25.0 | 0.00 | 0.21 | 0.21 | 73 | 1020.5 |
| 20260502041543 | 60 | 44 | 16.0 | 25.0 | 0.00 | 0.21 | 0.21 | 72 | 1020.4 |
| 20260502040040 | 60 | 345 | 15.0 | 25.0 | 0.00 | 0.21 | 0.21 | 73 | 1019.8 |
| 20260502034540 | 61 | 360 | 19.0 | 27.0 | 0.00 | 0.21 | 0.21 | 72 | 1019.7 |
| 20260502033045 | 61 | 350 | 18.0 | 25.0 | 0.00 | 0.21 | 0.21 | 71 | 1019.7 |
| 20260502031536 | 61 | 346 | 18.0 | 28.0 | 0.00 | 0.21 | 0.21 | 70 | 1019.3 |
| 20260502030032 | 62 | 69 | 18.0 | 28.0 | 0.00 | 0.21 | 0.21 | 69 | 1018.8 |
| 20260502024532 | 63 | 348 | 17.0 | 32.0 | 0.00 | 0.21 | 0.21 | 68 | 1018.6 |
| 20260502023028 | 64 | 72 | 22.0 | 32.0 | 0.00 | 0.21 | 0.21 | 67 | 1017.7 |
| 20260502021526 | 65 | 97 | 19.0 | 30.0 | 0.00 | 0.21 | 0.21 | 65 | 1017.0 |
| 20260502020023 | 66 | 109 | 18.0 | 29.0 | 0.00 | 0.21 | 0.21 | 62 | 1016.7 |
| 20260502014527 | 67 | 114 | 9.0 | 19.0 | 0.00 | 0.21 | 0.21 | 62 | 1016.2 |
| 20260502013019 | 68 | 174 | 11.0 | 24.0 | 0.00 | 0.21 | 0.21 | 62 | 1015.7 |
| 20260502011519 | 69 | 360 | 12.0 | 21.0 | 0.00 | 0.21 | 0.21 | 58 | 1015.4 |
| 20260502010017 | 72 | 360 | 3.0 | 6.0 | 0.00 | 0.21 | 0.21 | 41 | 1014.9 |
| 20260502004531 | 73 | 137 | 6.0 | 11.0 | 0.00 | 0.21 | 0.21 | 39 | 1014.7 |
| 20260502003018 | 75 | 360 | 8.0 | 13.0 | 0.00 | 0.21 | 0.21 | 38 | 1014.4 |
| 20260502001516 | 76 | 360 | 9.0 | 15.0 | 0.00 | 0.21 | 0.21 | 37 | 1014.2 |
| 20260502000017 | 74 | 360 | 8.0 | 13.0 | 0.00 | 0.21 | 0.21 | 35 | 1014.0 |
| 20260501234520 | 74 | 321 | 11.0 | 17.0 | 0.00 | 0.21 | 0.21 | 34 | 1013.9 |
| 20260501233014 | 76 | 360 | 8.0 | 15.0 | 0.00 | 0.21 | 0.21 | 34 | 1013.9 |
| 20260501231513 | 74 | 360 | 6.0 | 11.0 | 0.00 | 0.21 | 0.21 | 38 | 1013.7 |
| 20260501230013 | 75 | 360 | 8.0 | 17.0 | 0.00 | 0.21 | 0.21 | 37 | 1013.5 |
| 20260501224512 | 76 | 360 | 12.0 | 17.0 | 0.00 | 0.21 | 0.21 | 37 | 1013.3 |
| 20260501223012 | 76 | 360 | 10.0 | 16.0 | 0.00 | 0.21 | 0.21 | 37 | 1013.2 |
| 20260501221510 | 77 | 350 | 7.0 | 14.0 | 0.00 | 0.21 | 0.21 | 37 | 1013.1 |
| 20260501220009 | 75 | 300 | 3.0 | 14.0 | 0.00 | 0.21 | 0.21 | 38 | 1013.0 |
| 20260501214510 | 75 | 57 | 5.0 | 11.0 | 0.00 | 0.21 | 0.21 | 42 | 1013.1 |
| 20260501213009 | 75 | 32 | 6.0 | 10.0 | 0.01 | 0.21 | 0.21 | 41 | 1013.2 |
| 20260501211506 | 77 | 50 | 4.0 | 8.0 | 0.01 | 0.21 | 0.21 | 41 | 1013.4 |
| 20260501210003 | 74 | 58 | 7.0 | 11.0 | 0.01 | 0.21 | 0.21 | 48 | 1013.4 |
| 20260501204503 | 71 | 41 | 4.0 | 10.0 | 0.01 | 0.21 | 0.21 | 56 | 1013.6 |
| 20260501203002 | 70 | 360 | 14.0 | 18.0 | 0.00 | 0.20 | 0.20 | 58 | 1013.8 |
| 20260501201502 | 73 | 36 | 6.0 | 11.0 | 0.00 | 0.20 | 0.20 | 50 | 1013.6 |
| 20260501200100 | 73 | 63 | 3.0 | 10.0 | 0.00 | 0.20 | 0.20 | 50 | 1013.7 |
| 20260501194600 | 72 | 360 | 4.0 | 10.0 | 0.00 | 0.20 | 0.20 | 50 | 1013.8 |
| 20260501193059 | 72 | 40 | 6.0 | 15.0 | 0.00 | 0.20 | 0.20 | 51 | 1013.7 |
| 20260501191559 | 76 | 300 | 5.0 | 11.0 | 0.00 | 0.20 | 0.20 | 48 | 1013.9 |
| 20260501190057 | 72 | 360 | 2.0 | 7.0 | 0.00 | 0.20 | 0.20 | 55 | 1014.1 |
| 20260501184558 | 72 | 34 | 0.0 | 3.0 | 0.00 | 0.20 | 0.20 | 55 | 1014.4 |
| 20260501183059 | 71 | 38 | 3.0 | 9.0 | 0.00 | 0.20 | 0.20 | 57 | 1014.5 |
| 20260501181555 | 72 | 360 | 1.0 | 8.0 | 0.00 | 0.20 | 0.20 | 55 | 1014.6 |